[[{"header":{"parameterUnit":"m.s-1","parameterCategory":1,"la1":30.2991,"la2":30.254,"lo1":-89.0895,"lo2":-89.0444,"dy":0.0017,"dx":0.0017,"nx":28,"ny":28,"refTime":"2025-03-12T21:00:00:Z","depth":0,"parameterNumber":2,"parameterNumberName":"U-component_of_WINDS"},"data":[0,0,0,0,0,0,0,0,0,0,0,0,0,0,0,0,0,0,0,0,0,0,0,0,0,0,0,0,0,0,0,0,0,0,0,0,0,0,0,0,0,0,0,0,0,0,0,0,0,0,0,0,0,0,0,0,0,0,-1.0372,-1.0371,0,-1.0225,-1.0223,-1.0221,-1.0121,-1.012,-1.012,-1.0119,-0.9965,-0.9961,-0.9958,0,0,0,0,0,0,0,0,0,0,0,0,0,-1.0563,-1.056,-1.0372,-1.037,-1.0369,-1.0225,-1.0223,-1.0221,-1.0121,-1.012,-1.0119,-1.0119,-0.9966,-0.9962,-0.9957,0,0,0,0,0,0,0,0,0,0,0,0,0,-1.0455,-1.0559,-1.0373,-1.0302,-1.0294,-1.0225,-1.0223,-1.022,-1.0121,-1.012,-1.0119,-1.0118,-0.9967,-0.9962,-0.9957,-0.9946,0,0,-0.9941,-0.9939,0,0,0,0,0,0,0,0,-1.0461,-1.0448,-1.0314,-1.0306,-1.0297,-1.019,-1.0233,-1.0128,-1.0122,-1.0187,-1.0119,-1.0118,-1.004,-1.0029,-1.0004,-0.9939,-0.9932,-0.9941,-0.9938,-0.9935,-0.9934,0,0,0,0,0,0,0,-1.0468,-1.0453,-1.0314,-1.0312,-1.0302,-1.0276,-1.0259,-1.0213,-1.0121,-1.0181,-1.0173,-1.0157,-1.0036,-1.0009,-0.9999,-0.993,-0.9941,-0.9936,-0.9933,-0.9931,-0.9846,-0.9847,0,0,0,0,0,0,-1.0488,-1.046,-1.0318,-1.0309,-1.0378,-1.0273,-1.0254,-1.0226,-1.0121,-1.0105,-1.0158,-1.0153,-1.0018,-1.0005,-0.9993,-0.9972,-0.9935,-0.993,-0.9928,-0.9845,-0.9846,-0.9847,0,0,0,0,0,0,-1.0492,-1.0476,-1.0324,-1.0383,-1.0361,-1.0271,-1.0239,-1.0223,-1.0196,-1.0104,-1.0087,-1.0148,-1.0017,-1.0001,-0.9958,-0.9965,-0.9928,-0.9923,-0.9844,-0.9846,-0.9847,-0.993,0,0,0,0,0,0,-1.0498,-1.0478,-1.0475,-1.0383,-1.0359,-1.0293,-1.024,-1.0221,-1.0188,-1.018,-1.009,-1.0074,-1.0015,-0.9967,-0.9953,-0.9957,-0.9919,-0.9843,-0.9845,-0.9847,-0.9926,-0.9934,-0.9941,0,0,0,0,0,-1.0505,-1.0504,-1.0475,-1.0458,-1.0352,-1.0294,-1.028,-1.0212,-1.0189,-1.0183,-1.0124,-1.0077,-0.9967,-0.9963,-0.9947,-0.995,-0.9843,-0.9845,-0.9846,-0.9923,-0.9932,-0.994,0,0,0,0,0,0,-1.0597,-1.0491,-1.0457,-1.0427,-1.037,-1.0277,-1.0268,-1.0225,-1.0173,-1.0167,-1.0084,-1.0065,-1.003,-0.9986,-0.9984,-0.9932,-0.9899,-0.9898,-0.9963,-0.9971,-0.9978,-0.9988,-0.9915,0,0,0,0,0,-1.0614,-1.0577,-1.0485,-1.0467,-1.044,-1.036,-1.0332,-1.0284,-1.0222,-1.0198,-1.0135,-1.0076,-1.0027,-0.9997,-0.9947,-0.992,-0.9897,-0.9914,-0.9921,-0.9927,-0.9926,-0.9906,-0.9911,-0.9854,-0.9854,-0.9854,0,0,-1.0648,-1.0585,-1.0567,-1.0484,-1.0434,-1.0396,-1.034,-1.0302,-1.0272,-1.0191,-1.0147,-1.0099,-1.0027,-0.9992,-0.9973,-0.9953,-0.9938,-0.993,-0.9936,-0.9931,-0.9908,-0.9914,-0.9919,-0.9855,-0.9855,-0.9855,0,0,-1.069,-1.0641,-1.0618,-1.057,-1.0496,-1.0442,-1.0437,-1.035,-1.0315,-1.027,-1.0207,-1.017,-1.0089,-1.0039,-1.0004,-1.0026,-0.9979,-1.0012,-1.0049,-1.003,-1.0034,-1.0038,-1.0043,-1.0046,-1.0012,-1.0012,-1.0012,0,-1.0742,-1.0683,-1.0612,-1.0577,-1.0541,-1.0467,-1.0442,-1.0399,-1.0313,-1.0289,-1.0269,-1.0164,-1.0111,-1.0061,-1.0066,-1.0041,-1.003,-1.0021,-1.0039,-1.0042,-1.0044,-1.0048,-1.0051,-1.0016,-1.0016,-1.0015,-1.0015,0,-1.0748,-1.0708,-1.0698,-1.0617,-1.058,-1.0551,-1.0474,-1.0445,-1.0401,-1.0349,-1.0302,-1.0235,-1.017,-1.0155,-1.0111,-1.0098,-1.0088,-1.0055,-1.0019,-1.0055,-1.0057,-1.0059,-1.0022,-1.0021,-1.002,-1.0019,0,0,-1.0844,-1.0723,-1.072,-1.0681,-1.0594,-1.056,-1.0527,-1.0463,-1.0439,-1.0382,-1.035,-1.0283,-1.0251,-1.021,-1.0161,-1.0144,-1.0162,-1.0112,-1.0109,-1.0122,-1.0141,-1.0165,-1.0168,-1.0132,-1.0132,-1.0132,-1.0146,0,-1.087,-1.0807,-1.0742,-1.07,-1.0661,-1.0589,-1.0559,-1.0502,-1.0452,-1.0409,-1.0354,-1.0306,-1.027,-1.0244,-1.0225,-1.0165,-1.0165,-1.0163,-1.0099,-1.0098,-1.0117,-1.0169,-1.0194,-1.021,-1.0147,-1.0147,-1.0147,0,-1.0893,-1.0839,-1.0794,-1.0708,-1.0689,-1.0664,-1.0599,-1.0561,-1.0493,-1.0457,-1.0412,-1.0359,-1.0318,-1.0288,-1.0229,-1.023,-1.02,-1.0166,-1.0165,-1.0154,-1.0123,-1.0158,-1.0214,-1.0216,-1.0148,-1.0148,-1.0148,0,-1.0964,-1.088,-1.0841,-1.0811,-1.071,-1.0694,-1.0651,-1.0582,-1.0548,-1.0491,-1.0467,-1.0407,-1.0373,-1.0326,-1.0258,-1.0243,-1.0205,-1.017,-1.0172,-1.0174,-1.0166,-1.0167,-1.0216,-1.0151,-1.0151,-1.0151,-1.0151,0,-1.0999,-1.0974,-1.0872,-1.0848,-1.0816,-1.0741,-1.0712,-1.0662,-1.0602,-1.0565,-1.05,-1.0468,-1.038,-1.0336,-1.0283,-1.024,-1.0226,-1.0195,-1.018,-1.0199,-1.0203,-1.0177,-1.0173,-1.0152,-1.0151,-1.0151,-1.0151,0,-1.1073,-1.1004,-1.0956,-1.0865,-1.0841,-1.0822,-1.0743,-1.0716,-1.0662,-1.0617,-1.0602,-1.0517,-1.0462,-1.039,-1.0312,-1.0276,-1.0239,-1.0218,-1.0262,-1.0253,-1.0258,-1.0258,-1.029,-1.0289,-1.0229,-1.0229,-1.023,0,-1.1099,-1.1078,-1.0984,-1.0955,-1.0914,-1.0869,-1.0833,-1.0758,-1.0723,-1.0643,-1.0625,-1.0565,-1.0513,-1.0428,-1.0359,-1.0298,-1.0274,-1.0289,-1.0264,-1.0283,-1.0271,-1.0272,-1.0268,-1.0295,-1.0296,-1.0297,-1.0298,0,-1.1152,-1.1118,-1.1069,-1.1008,-1.0966,-1.0914,-1.0859,-1.0839,-1.0752,-1.0716,-1.0659,-1.0618,-1.0539,-1.0479,-1.0409,-1.0363,-1.0315,-1.0306,-1.0303,-1.0321,-1.0346,-1.033,-1.0276,-1.0305,-1.0305,-1.0304,-1.0304,-1.0303,-1.12,-1.1177,-1.1106,-1.1053,-1.1004,-1.0953,-1.0923,-1.0865,-1.0816,-1.0746,-1.0704,-1.0648,-1.0578,-1.048,-1.0436,-1.039,-1.0372,-1.0368,-1.0366,-1.0366,-1.0371,-1.0356,-1.0378,-1.0377,-1.0377,-1.0377,-1.0377,0,-1.1247,-1.1198,-1.115,-1.1075,-1.1032,-1.0992,-1.0928,-1.0895,-1.0847,-1.0786,-1.0736,-1.0669,-1.0611,-1.0537,-1.0473,-1.045,-1.0426,-1.0436,-1.0435,-1.0425,-1.0392,-1.04,-1.0456,-1.0456,-1.0456,-1.0456,-1.0456,-1.0456,-1.1267,-1.1224,-1.1182,-1.1113,-1.1064,-1.1008,-1.0975,-1.0927,-1.0878,-1.0807,-1.0758,-1.0711,-1.0644,-1.0574,-1.0518,-1.0498,-1.0476,-1.0492,-1.0464,-1.0435,-1.0428,-1.0421,-1.0428,-1.0488,-1.0488,-1.05,-1.05,-1.0501]},{"header":{"parameterUnit":"m.s-1","parameterCategory":1,"la1":30.2991,"la2":30.254,"lo1":-89.0895,"lo2":-89.0444,"dy":0.0017,"dx":0.0017,"nx":28,"ny":28,"refTime":"2025-03-12T21:00:00:Z","depth":0,"parameterNumber":3,"parameterNumberName":"V-component_of_WINDS"},"data":[0,0,0,0,0,0,0,0,0,0,0,0,0,0,0,0,0,0,0,0,0,0,0,0,0,0,0,0,0,0,0,0,0,0,0,0,0,0,0,0,0,0,0,0,0,0,0,0,0,0,0,0,0,0,0,0,0,0,3.1862,3.1862,0,3.1818,3.1818,3.1817,3.1844,3.1845,3.1847,3.1848,3.1797,3.1795,3.1792,0,0,0,0,0,0,0,0,0,0,0,0,0,3.1967,3.1965,3.1863,3.1862,3.1861,3.1818,3.1818,3.1817,3.1844,3.1845,3.1847,3.1849,3.1798,3.1795,3.1792,0,0,0,0,0,0,0,0,0,0,0,0,0,3.1922,3.1964,3.1863,3.187,3.187,3.1818,3.1818,3.1817,3.1844,3.1845,3.1847,3.1849,3.1799,3.1796,3.1792,3.1729,0,0,3.178,3.1778,0,0,0,0,0,0,0,0,3.1924,3.1918,3.1869,3.1869,3.1869,3.1839,3.1836,3.1787,3.1843,3.1853,3.1848,3.185,3.1809,3.1805,3.1792,3.1727,3.1725,3.178,3.1777,3.1776,3.1775,0,0,0,0,0,0,0,3.1927,3.192,3.1845,3.1869,3.1869,3.1874,3.187,3.1827,3.1821,3.1853,3.1855,3.1849,3.181,3.1796,3.1791,3.1724,3.178,3.1776,3.1774,3.1773,3.1607,3.1605,0,0,0,0,0,0,3.1931,3.1922,3.1846,3.1843,3.1902,3.1871,3.1866,3.1846,3.1821,3.182,3.1848,3.1851,3.1801,3.1795,3.1789,3.1716,3.1776,3.1772,3.177,3.1609,3.1606,3.1604,0,0,0,0,0,0,3.1933,3.1923,3.1848,3.1883,3.1874,3.1867,3.1845,3.1845,3.1831,3.1818,3.1816,3.1835,3.1803,3.1795,3.1745,3.1714,3.177,3.1767,3.1611,3.1608,3.1605,3.1567,0,0,0,0,0,0,3.1936,3.1924,3.1901,3.1883,3.1872,3.1805,3.1843,3.1842,3.1825,3.1828,3.1805,3.1803,3.1803,3.175,3.1741,3.171,3.1764,3.1614,3.161,3.1606,3.1571,3.1563,3.1556,0,0,0,0,0,3.1939,3.189,3.19,3.189,3.1843,3.1803,3.1797,3.18,3.1822,3.1798,3.179,3.1804,3.1719,3.1745,3.1734,3.1702,3.1616,3.1611,3.1606,3.1574,3.1564,3.1556,0,0,0,0,0,0,3.1903,3.1888,3.1898,3.1842,3.1824,3.1808,3.1778,3.1789,3.1763,3.1767,3.177,3.1765,3.1713,3.1702,3.1731,3.1641,3.1671,3.1664,3.165,3.164,3.1633,3.1637,3.1761,0,0,0,0,0,3.1889,3.1859,3.1847,3.1798,3.1789,3.1785,3.1767,3.1772,3.1752,3.1744,3.1732,3.1711,3.1681,3.166,3.163,3.1569,3.1565,3.1542,3.1534,3.1528,3.1522,3.1491,3.1481,3.1588,3.1588,3.1588,0,0,3.1858,3.1846,3.1827,3.1791,3.1777,3.1745,3.1778,3.1742,3.1718,3.1738,3.1691,3.1681,3.1659,3.1603,3.1578,3.1593,3.1492,3.1522,3.1518,3.1515,3.1485,3.1475,3.1465,3.1585,3.1586,3.1586,0,0,3.1787,3.1775,3.1734,3.1721,3.1701,3.1699,3.1689,3.1671,3.1667,3.162,3.1634,3.1605,3.1551,3.1535,3.152,3.1444,3.1456,3.1434,3.1395,3.1365,3.1356,3.1349,3.1323,3.1313,3.1428,3.1428,3.1428,0,3.1751,3.1705,3.1711,3.1675,3.1659,3.1678,3.1637,3.1622,3.1593,3.1581,3.1598,3.1532,3.1518,3.146,3.1442,3.1429,3.1418,3.1437,3.1357,3.135,3.1343,3.1318,3.1308,3.1426,3.1426,3.1426,3.1427,0,3.1662,3.163,3.16,3.1574,3.1554,3.1515,3.1515,3.1494,3.15,3.1496,3.1449,3.1433,3.1401,3.1388,3.1392,3.1331,3.1341,3.1357,3.1387,3.133,3.1307,3.1297,3.1422,3.1423,3.1424,3.1425,0,0,3.1566,3.1546,3.1534,3.1523,3.1503,3.1478,3.144,3.1411,3.1394,3.1373,3.1342,3.1297,3.1313,3.1295,3.1298,3.1271,3.1214,3.1291,3.1291,3.1278,3.1146,3.1135,3.1123,3.1222,3.122,3.1219,3.1149,0,3.1494,3.143,3.1436,3.1375,3.1346,3.1364,3.1331,3.1315,3.131,3.1284,3.1278,3.1247,3.127,3.126,3.1234,3.1227,3.1188,3.1232,3.1192,3.1191,3.1198,3.1111,3.1098,3.1032,3.114,3.1138,3.1137,0,3.1401,3.138,3.1318,3.1304,3.1292,3.1263,3.1238,3.1212,3.1194,3.1193,3.1175,3.1183,3.1144,3.1176,3.1123,3.1153,3.1137,3.1131,3.1129,3.1125,3.1161,3.1106,3.1011,3.1002,3.1122,3.1124,3.1125,0,3.1339,3.1294,3.1251,3.1241,3.1224,3.1203,3.1195,3.1179,3.1162,3.1139,3.1128,3.1101,3.1086,3.1064,3.1065,3.1087,3.1012,3.1043,3.1009,3.1009,3.0992,3.0994,3.0895,3.0981,3.0981,3.0982,3.0982,0,3.1258,3.1219,3.1223,3.1197,3.1154,3.116,3.1117,3.1111,3.1097,3.1069,3.1082,3.1055,3.1057,3.103,3.103,3.0987,3.098,3.0978,3.0978,3.0977,3.0977,3.0967,3.0971,3.0979,3.098,3.098,3.098,0,3.1181,3.1182,3.1137,3.1125,3.1121,3.109,3.1079,3.1054,3.1052,3.1016,3.1008,3.1004,3.0973,3.0971,3.0935,3.0935,3.0883,3.0888,3.0889,3.0891,3.0858,3.0861,3.0749,3.0735,3.083,3.0829,3.0828,0,3.1129,3.11,3.1087,3.107,3.1061,3.1034,3.1017,3.1022,3.1004,3.0983,3.096,3.0931,3.0908,3.0858,3.085,3.0823,3.0828,3.0791,3.0824,3.0824,3.0828,3.0831,3.0828,3.0784,3.0783,3.0782,3.0781,0,3.1039,3.1042,3.1019,3.0996,3.0977,3.0958,3.0941,3.0926,3.093,3.0909,3.0878,3.0861,3.0825,3.0796,3.077,3.076,3.0771,3.0771,3.0762,3.0761,3.0763,3.0763,3.0873,3.0774,3.0774,3.0775,3.0775,3.0776,3.0974,3.095,3.0937,3.0911,3.0899,3.0884,3.086,3.0856,3.0831,3.0804,3.0808,3.0775,3.0758,3.0725,3.0713,3.0686,3.0699,3.0685,3.0682,3.0679,3.0676,3.0768,3.0681,3.0681,3.0682,3.0682,3.0682,0,3.0885,3.0879,3.0855,3.0832,3.0812,3.0826,3.0809,3.079,3.0761,3.0746,3.0724,3.069,3.0662,3.0653,3.0626,3.0607,3.0611,3.0599,3.0601,3.0599,3.0666,3.0677,3.0596,3.0596,3.0596,3.0596,3.0596,3.0596,3.0837,3.0797,3.0799,3.0753,3.0746,3.0715,3.0704,3.069,3.0678,3.064,3.0618,3.0613,3.0601,3.0573,3.0549,3.0547,3.0536,3.0523,3.0523,3.0585,3.0594,3.0602,3.0613,3.052,3.052,3.0459,3.0458,3.0458]}]]